Location: Unspecified
(52.4292°N, 19.3359°E)
Time: 00:43:11
(UTC+02:00)

Vanguard 1 Rocket - Pass Details

Date: 26 May 2024
Orbit: 649 x 4221 km, 34.3° (Epoch: 13 June)

Event Time Altitude Azimuth Distance (km) Brightness Sun altitude
Rises 11:28:03 0° 253° (WSW) 7,933 12.1 55.9°
Reaches altitude 10° 11:34:42 10° 246° (WSW) 6,443 11.8 56.4°
Maximum altitude 11:50:09 34° 192° (SSW) 3,308 11.4 57.4°
Drops below altitude 10° 11:59:09 10° 131° (SE) 3,756 11.1 57.8°
Sets 12:01:53 0° 121° (ESE) 4,377 11.2 58.0°
